contact:dominique.lefevre@mio.osupytheas.fr, maurice.libes@osupytheas.fr, didier.mallarino@osupytheas.fr
Project:EMSO http://www.emso-fr.org/EMSO-France
Depth: 2436.0 m
Title:EMSO Ligure Ouest : Data MII capteur AQUADOPP
Date,Latitude,Longitude,X_East,Y_North,Z_Up,Amplitude_X,Amplitude_Y,Amplitude_Z,Batterie,SoundSpeed,Heading,Pitch,Roll,Pressure,TIS,Speed,Direction
, degrees North, degrees East, m.s-1, m.s-1,m.s-1, 1, 1, 1, Volt, m.s-1, degree, degree, degree, dbar, degree_C, m.s-1, degree
2021-04-05T00:04:03,42.805,6.029,-0.022,0.014,-0.004,105.0,104.0,102.0,13.4,1505.2,326.1,-0.7,1.8,2470.458,13.28,0.026,302.5
2021-04-05T00:07:03,42.805,6.029,-0.012,0.013,0.002,104.0,105.0,103.0,13.4,1505.2,326.6,-0.8,1.8,2470.479,13.29,0.017,317.3
2021-04-05T00:10:03,42.805,6.029,-0.017,0.002,0.023,106.0,105.0,103.0,13.4,1505.2,325.2,-0.8,1.8,2470.468,13.29,0.017,276.7
2021-04-05T00:13:03,42.805,6.029,-0.019,-0.004,0.008,106.0,104.0,102.0,13.3,1505.2,327.6,-0.8,1.8,2470.433,13.29,0.019,258.1
2021-04-05T00:16:03,42.805,6.029,-0.032,0.01,-0.001,106.0,103.0,103.0,13.4,1505.2,325.1,-0.7,1.8,2470.413,13.29,0.033,287.4
2021-04-05T00:19:03,42.805,6.029,0.002,0.0,0.022,104.0,104.0,102.0,13.3,1505.2,327.3,-0.8,1.8,2470.447,13.29,0.002,90.0
2021-04-05T00:22:03,42.805,6.029,-0.001,-0.009,0.018,105.0,104.0,102.0,13.4,1505.2,326.9,-0.7,1.8,2470.42,13.29,0.009,186.3
2021-04-05T00:25:03,42.805,6.029,-0.004,-0.015,0.0,105.0,105.0,102.0,13.4,1505.2,323.8,-0.8,1.9,2470.421,13.29,0.015,194.9
2021-04-05T00:28:03,42.805,6.029,-0.008,0.017,0.04,105.0,105.0,104.0,13.3,1505.2,323.8,-0.8,1.8,2470.471,13.29,0.018,334.8
2021-04-05T00:31:03,42.805,6.029,0.0,0.001,0.024,104.0,106.0,102.0,13.4,1505.2,328.3,-0.8,1.8,2470.432,13.29,0.001,0.0
2021-04-05T00:34:03,42.805,6.029,-0.014,-0.013,0.0,107.0,105.0,103.0,13.3,1505.2,326.7,-0.7,1.8,2470.484,13.29,0.019,227.1
2021-04-05T00:37:03,42.805,6.029,-0.002,-0.018,0.003,107.0,105.0,103.0,13.4,1505.2,327.2,-0.7,1.9,2470.461,13.29,0.018,186.3
2021-04-05T00:40:03,42.805,6.029,-0.007,-0.006,-0.011,106.0,106.0,103.0,13.3,1505.2,323.7,-0.8,1.8,2470.453,13.29,0.009,229.4
2021-04-05T00:43:03,42.805,6.029,-0.005,0.007,-0.02,106.0,105.0,103.0,13.4,1505.2,326.7,-0.7,1.9,2470.463,13.29,0.008,324.5
2021-04-05T00:46:03,42.805,6.029,-0.005,0.009,-0.008,104.0,105.0,104.0,13.3,1505.2,327.1,-0.8,1.8,2470.457,13.29,0.01,330.9
2021-04-05T00:49:03,42.805,6.029,-0.015,0.008,0.004,106.0,105.0,103.0,13.4,1505.2,325.5,-0.7,1.8,2470.462,13.29,0.017,298.1
2021-04-05T00:52:03,42.805,6.029,-0.005,0.03,0.006,108.0,106.0,103.0,13.4,1505.2,328.1,-0.7,1.8,2470.47,13.29,0.03,350.5
2021-04-05T00:55:03,42.805,6.029,-0.011,-0.003,0.039,105.0,106.0,102.0,13.4,1505.2,328.9,-0.7,1.8,2470.468,13.29,0.011,254.7
2021-04-05T00:58:03,42.805,6.029,-0.008,-0.01,0.012,105.0,105.0,103.0,13.3,1505.2,327.4,-0.7,1.8,2470.458,13.29,0.012,218.7
2021-04-05T01:04:03,42.805,6.029,-0.021,0.012,0.002,104.0,106.0,103.0,13.3,1505.2,324.3,-0.7,1.8,2470.511,13.28,0.024,299.7
2021-04-05T01:07:03,42.805,6.029,-0.003,0.002,0.005,104.0,107.0,102.0,13.4,1505.2,327.4,-0.8,1.8,2470.487,13.29,0.003,303.7
2021-04-05T01:10:03,42.805,6.029,-0.002,-0.004,0.008,105.0,104.0,102.0,13.3,1505.2,328.7,-0.8,1.8,2470.414,13.29,0.004,206.6
2021-04-05T01:13:03,42.805,6.029,-0.002,0.003,0.038,106.0,105.0,103.0,13.4,1505.2,327.1,-0.7,1.8,2470.54,13.29,0.003,326.3
2021-04-05T01:16:03,42.805,6.029,-0.011,-0.019,-0.013,106.0,106.0,104.0,13.4,1505.2,325.8,-0.8,1.8,2470.441,13.29,0.021,210.1
2021-04-05T01:19:03,42.805,6.029,-0.009,0.006,0.015,104.0,105.0,103.0,13.4,1505.2,327.8,-0.7,1.8,2470.461,13.29,0.01,303.7
2021-04-05T01:22:03,42.805,6.029,-0.021,-0.002,0.027,105.0,103.0,102.0,13.3,1505.2,326.7,-0.7,1.8,2470.475,13.29,0.021,264.6
2021-04-05T01:25:03,42.805,6.029,-0.001,-0.015,-0.006,107.0,106.0,105.0,13.4,1505.2,328.0,-0.7,1.9,2470.426,13.29,0.015,183.8
2021-04-05T01:28:03,42.805,6.029,0.004,0.002,0.028,105.0,106.0,104.0,13.4,1505.2,324.5,-0.8,1.8,2470.472,13.29,0.004,63.4
2021-04-05T01:31:03,42.805,6.029,-0.008,0.001,0.021,106.0,105.0,104.0,13.4,1505.2,326.1,-0.8,1.8,2470.471,13.29,0.008,277.1
2021-04-05T01:34:03,42.805,6.029,-0.008,-0.006,0.032,106.0,104.0,102.0,13.4,1505.2,324.0,-0.8,1.8,2470.46,13.29,0.01,233.1
2021-04-05T01:37:03,42.805,6.029,-0.02,0.001,0.033,106.0,105.0,102.0,13.4,1505.2,324.7,-0.8,1.8,2470.448,13.29,0.02,272.9
2021-04-05T01:40:03,42.805,6.029,-0.013,0.017,0.007,107.0,104.0,102.0,13.3,1505.2,323.7,-0.7,1.8,2470.468,13.29,0.021,322.6
2021-04-05T01:43:03,42.805,6.029,-0.023,0.005,-0.004,107.0,104.0,102.0,13.4,1505.2,326.6,-0.8,1.8,2470.454,13.29,0.023,282.3
2021-04-05T01:46:03,42.805,6.029,-0.01,-0.013,-0.004,106.0,106.0,102.0,13.3,1505.2,324.8,-0.7,1.8,2470.462,13.29,0.016,217.6
2021-04-05T01:49:03,42.805,6.029,-0.009,0.0,0.03,107.0,106.0,103.0,13.4,1505.2,328.0,-0.8,1.8,2470.441,13.29,0.009,270.0
2021-04-05T01:52:03,42.805,6.029,0.012,0.002,0.003,106.0,106.0,102.0,13.3,1505.2,325.5,-0.7,1.8,2470.474,13.29,0.012,80.5
2021-04-05T01:55:03,42.805,6.029,-0.015,-0.002,-0.005,106.0,106.0,104.0,13.3,1505.2,326.9,-0.8,1.8,2470.456,13.29,0.015,262.4
2021-04-05T01:58:03,42.805,6.029,-0.004,-0.002,0.0,108.0,105.0,103.0,13.4,1505.2,323.4,-0.8,1.8,2470.455,13.29,0.004,243.4
2021-04-05T02:04:03,42.805,6.029,-0.019,0.003,-0.005,105.0,106.0,103.0,13.4,1505.2,329.2,-0.7,1.8,2470.482,13.29,0.019,279.0
2021-04-05T02:07:03,42.805,6.029,-0.008,-0.009,0.015,105.0,106.0,103.0,13.3,1505.2,328.5,-0.8,1.8,2470.502,13.29,0.012,221.6
2021-04-05T02:10:03,42.805,6.029,-0.003,0.003,0.016,105.0,106.0,104.0,13.4,1505.2,328.0,-0.8,1.8,2470.435,13.29,0.004,315.0
2021-04-05T02:13:03,42.805,6.029,0.0,0.002,-0.006,107.0,105.0,103.0,13.4,1505.2,325.4,-0.7,1.8,2470.456,13.29,0.002,0.0
2021-04-05T02:16:03,42.805,6.029,-0.017,-0.01,-0.003,106.0,106.0,102.0,13.4,1505.2,325.3,-0.8,1.8,2470.489,13.29,0.019,239.5
2021-04-05T02:19:03,42.805,6.029,-0.001,0.0,-0.009,105.0,104.0,103.0,13.4,1505.2,326.8,-0.7,1.8,2470.45,13.29,0.001,270.0
2021-04-05T02:22:03,42.805,6.029,-0.006,0.004,0.007,106.0,107.0,104.0,13.3,1505.2,323.5,-0.7,1.9,2470.456,13.29,0.007,303.7
2021-04-05T02:25:03,42.805,6.029,-0.006,0.007,0.005,107.0,105.0,103.0,13.3,1505.2,325.7,-0.7,1.8,2470.455,13.29,0.009,319.4
2021-04-05T02:28:03,42.805,6.029,-0.005,-0.013,0.011,106.0,106.0,103.0,13.4,1505.2,328.1,-0.7,1.8,2470.435,13.29,0.013,201.0
2021-04-05T02:31:03,42.805,6.029,0.007,0.006,0.0,105.0,106.0,104.0,13.3,1505.2,326.5,-0.8,1.8,2470.502,13.29,0.009,49.4
2021-04-05T02:34:03,42.805,6.029,-0.01,0.006,-0.007,107.0,106.0,104.0,13.4,1505.2,325.2,-0.8,1.8,2470.472,13.29,0.011,301.0
2021-04-05T02:37:03,42.805,6.029,-0.011,-0.003,0.008,107.0,108.0,103.0,13.4,1505.2,326.2,-0.7,1.8,2470.434,13.29,0.011,254.7
2021-04-05T02:40:03,42.805,6.029,0.006,0.002,0.033,104.0,108.0,104.0,13.4,1505.2,326.3,-0.8,1.8,2470.44,13.29,0.006,71.6
2021-04-05T02:43:03,42.805,6.029,0.006,0.007,-0.002,105.0,108.0,104.0,13.3,1505.2,327.3,-0.8,1.8,2470.474,13.29,0.009,40.6
2021-04-05T02:46:03,42.805,6.029,0.003,0.002,-0.012,105.0,111.0,103.0,13.4,1505.2,328.9,-0.8,1.8,2470.461,13.29,0.003,56.3
2021-04-05T02:49:03,42.805,6.029,0.008,-0.014,-0.001,106.0,107.0,103.0,13.4,1505.2,325.6,-0.7,1.8,2470.504,13.29,0.016,150.3
2021-04-05T02:52:03,42.805,6.029,-0.004,-0.006,0.029,105.0,106.0,102.0,13.4,1505.2,325.5,-0.7,1.9,2470.461,13.29,0.007,213.7
2021-04-05T02:55:03,42.805,6.029,-0.012,-0.012,-0.004,105.0,106.0,103.0,13.4,1505.2,326.0,-0.7,1.8,2470.481,13.29,0.016,225.0
2021-04-05T02:58:03,42.805,6.029,0.004,-0.003,0.01,105.0,105.0,102.0,13.3,1505.2,329.0,-0.7,1.8,2470.473,13.29,0.005,126.9
2021-04-05T03:04:03,42.805,6.029,-0.002,-0.006,-0.014,104.0,105.0,103.0,13.4,1505.2,327.5,-0.7,1.8,2470.476,13.29,0.006,198.4
2021-04-05T03:07:03,42.805,6.029,0.001,0.003,0.012,106.0,104.0,103.0,13.3,1505.2,326.4,-0.8,1.8,2470.504,13.29,0.003,18.4
2021-04-05T03:10:03,42.805,6.029,0.011,0.002,0.0,105.0,106.0,103.0,13.4,1505.2,326.4,-0.7,1.8,2470.523,13.29,0.011,79.7
2021-04-05T03:13:03,42.805,6.029,-0.011,0.001,0.029,107.0,103.0,103.0,13.4,1505.2,327.4,-0.8,1.8,2470.467,13.29,0.011,275.2
2021-04-05T03:16:03,42.805,6.029,0.001,0.007,0.007,106.0,107.0,102.0,13.4,1505.2,324.0,-0.7,1.8,2470.476,13.29,0.007,8.1
2021-04-05T03:19:03,42.805,6.029,-0.006,0.005,0.02,106.0,107.0,104.0,13.4,1505.2,324.0,-0.7,1.8,2470.48,13.29,0.007,309.8
2021-04-05T03:22:03,42.805,6.029,0.003,-0.009,0.002,105.0,106.0,103.0,13.3,1505.2,329.1,-0.8,1.8,2470.456,13.29,0.009,161.6
2021-04-05T03:25:03,42.805,6.029,-0.011,-0.01,0.011,106.0,106.0,103.0,13.3,1505.2,327.3,-0.8,1.8,2470.457,13.29,0.014,227.7
2021-04-05T03:28:03,42.805,6.029,-0.012,0.003,0.023,105.0,106.0,104.0,13.4,1505.2,327.2,-0.8,1.8,2470.467,13.29,0.012,284.0
2021-04-05T03:31:03,42.805,6.029,0.002,0.009,0.0,105.0,107.0,102.0,13.3,1505.2,325.3,-0.8,1.8,2470.492,13.29,0.009,12.5
2021-04-05T03:34:03,42.805,6.029,-0.007,0.0,0.015,106.0,105.0,105.0,13.4,1505.2,326.9,-0.8,1.8,2470.486,13.29,0.007,270.0
2021-04-05T03:37:03,42.805,6.029,0.019,-0.021,-0.003,107.0,107.0,104.0,13.3,1505.2,326.7,-0.7,1.8,2470.485,13.29,0.028,137.9
2021-04-05T03:40:03,42.805,6.029,-0.009,0.006,-0.014,105.0,106.0,104.0,13.3,1505.2,324.3,-0.7,1.8,2470.446,13.29,0.01,303.7
2021-04-05T03:43:03,42.805,6.029,-0.01,-0.01,0.01,107.0,105.0,103.0,13.3,1505.2,328.5,-0.7,1.8,2470.434,13.29,0.014,225.0
2021-04-05T03:46:03,42.805,6.029,-0.001,0.0,0.017,105.0,106.0,104.0,13.3,1505.2,328.5,-0.8,1.8,2470.483,13.29,0.001,270.0
2021-04-05T03:49:03,42.805,6.029,-0.008,-0.021,-0.013,106.0,105.0,103.0,13.3,1505.2,328.0,-0.8,1.8,2470.491,13.29,0.022,200.9
2021-04-05T03:52:03,42.805,6.029,0.007,0.015,0.006,106.0,106.0,104.0,13.4,1505.2,324.9,-0.8,1.9,2470.486,13.29,0.016,25.0
2021-04-05T03:55:03,42.805,6.029,0.016,-0.021,0.004,108.0,105.0,103.0,13.4,1505.2,327.0,-0.8,1.8,2470.463,13.29,0.026,142.7
2021-04-05T03:58:03,42.805,6.029,0.018,0.008,0.027,106.0,105.0,104.0,13.4,1505.2,324.0,-0.8,1.9,2470.502,13.29,0.019,66.0
2021-04-05T04:04:03,42.805,6.029,0.007,-0.007,0.017,108.0,108.0,104.0,13.4,1505.2,327.9,-0.8,1.8,2470.465,13.29,0.009,135.0
2021-04-05T04:07:03,42.805,6.029,-0.003,0.0,0.002,108.0,106.0,103.0,13.4,1505.2,325.8,-0.8,1.8,2470.469,13.29,0.003,270.0
2021-04-05T04:10:03,42.805,6.029,0.006,-0.011,-0.005,107.0,107.0,103.0,13.4,1505.2,324.5,-0.7,1.8,2470.47,13.29,0.012,151.4
2021-04-05T04:13:03,42.805,6.029,0.0,-0.015,0.011,107.0,108.0,104.0,13.4,1505.2,328.5,-0.8,1.8,2470.448,13.29,0.015,180.0
2021-04-05T04:16:03,42.805,6.029,0.0,0.0,0.04,107.0,106.0,104.0,13.4,1505.2,326.1,-0.7,1.8,2470.49,13.29,0.0,0.0
2021-04-05T04:19:03,42.805,6.029,-0.005,-0.01,0.007,107.0,107.0,103.0,13.3,1505.2,324.9,-0.8,1.8,2470.454,13.29,0.011,206.6
2021-04-05T04:22:03,42.805,6.029,0.018,0.002,0.021,106.0,107.0,103.0,13.4,1505.2,324.9,-0.8,1.9,2470.474,13.29,0.018,83.7
2021-04-05T04:25:03,42.805,6.029,-0.021,0.01,0.008,107.0,108.0,104.0,13.4,1505.2,327.6,-0.7,1.8,2470.473,13.29,0.023,295.5
2021-04-05T04:28:03,42.805,6.029,0.009,-0.005,0.042,105.0,106.0,104.0,13.4,1505.2,328.4,-0.8,1.8,2470.494,13.29,0.01,119.1
2021-04-05T04:31:03,42.805,6.029,-0.018,-0.009,-0.009,105.0,106.0,102.0,13.4,1505.2,328.9,-0.8,1.8,2470.45,13.29,0.02,243.4
2021-04-05T04:34:03,42.805,6.029,0.008,-0.015,-0.008,105.0,105.0,103.0,13.3,1505.2,324.9,-0.8,1.8,2470.464,13.29,0.017,151.9
2021-04-05T04:37:03,42.805,6.029,0.016,-0.017,0.008,106.0,104.0,104.0,13.4,1505.2,327.0,-0.7,1.8,2470.461,13.29,0.023,136.7
2021-04-05T04:40:03,42.805,6.029,-0.017,-0.011,0.023,105.0,105.0,102.0,13.4,1505.2,324.5,-0.7,1.8,2470.451,13.28,0.02,237.1
2021-04-05T04:43:03,42.805,6.029,0.025,-0.014,0.0,106.0,105.0,102.0,13.4,1505.2,325.6,-0.7,1.8,2470.456,13.28,0.028,119.3
2021-04-05T04:46:03,42.805,6.029,-0.003,-0.029,-0.009,105.0,106.0,102.0,13.4,1505.2,327.1,-0.7,1.9,2470.447,13.28,0.029,185.9
2021-04-05T04:49:03,42.805,6.029,-0.007,-0.005,0.0,105.0,104.0,103.0,13.4,1505.2,323.6,-0.7,1.8,2470.459,13.28,0.008,234.5
2021-04-05T04:52:03,42.805,6.029,0.005,-0.01,0.03,107.0,105.0,103.0,13.4,1505.2,326.7,-0.8,1.8,2470.454,13.28,0.011,153.4
2021-04-05T04:55:03,42.805,6.029,0.009,-0.016,0.023,105.0,105.0,102.0,13.4,1505.2,327.7,-0.8,1.8,2470.454,13.28,0.018,150.6
2021-04-05T04:58:03,42.805,6.029,0.003,-0.008,0.006,106.0,104.0,102.0,13.4,1505.2,325.7,-0.7,1.8,2470.394,13.28,0.008,159.4
2021-04-05T05:04:03,42.805,6.029,0.001,-0.003,0.014,105.0,103.0,102.0,13.4,1505.2,327.8,-0.8,1.8,2470.474,13.28,0.003,161.6
2021-04-05T05:07:03,42.805,6.029,0.011,-0.023,-0.014,105.0,105.0,104.0,13.4,1505.2,327.8,-0.7,1.8,2470.445,13.28,0.025,154.4
2021-04-05T05:10:03,42.805,6.029,0.009,-0.004,-0.022,105.0,106.0,103.0,13.4,1505.2,324.7,-0.7,1.9,2470.482,13.28,0.009,114.0
2021-04-05T05:13:03,42.805,6.029,0.003,-0.006,0.028,105.0,105.0,103.0,13.4,1505.2,326.5,-0.8,1.8,2470.493,13.28,0.006,153.4
2021-04-05T05:16:03,42.805,6.029,-0.006,-0.004,0.003,106.0,103.0,104.0,13.4,1505.2,328.2,-0.7,1.8,2470.473,13.28,0.007,236.3
2021-04-05T05:19:03,42.805,6.029,0.005,-0.02,-0.006,105.0,104.0,103.0,13.4,1505.2,326.0,-0.8,1.8,2470.462,13.28,0.02,166.0
2021-04-05T05:22:03,42.805,6.029,0.017,-0.015,0.007,105.0,106.0,102.0,13.3,1505.2,324.8,-0.8,1.8,2470.401,13.28,0.022,131.4
2021-04-05T05:25:03,42.805,6.029,0.003,-0.015,-0.015,104.0,105.0,102.0,13.3,1505.2,327.7,-0.8,1.8,2470.455,13.28,0.015,168.7
2021-04-05T05:28:03,42.805,6.029,0.008,-0.014,0.017,106.0,106.0,102.0,13.4,1505.2,327.3,-0.8,1.8,2470.46,13.28,0.016,150.3
2021-04-05T05:31:03,42.805,6.029,0.002,0.005,0.014,104.0,104.0,104.0,13.4,1505.2,328.6,-0.8,1.8,2470.437,13.28,0.005,21.8
2021-04-05T05:34:03,42.805,6.029,0.011,-0.017,-0.004,106.0,104.0,102.0,13.4,1505.2,326.0,-0.8,1.8,2470.426,13.28,0.02,147.1
2021-04-05T05:37:03,42.805,6.029,0.004,-0.004,0.025,105.0,106.0,101.0,13.3,1505.2,326.5,-0.8,1.8,2470.481,13.28,0.005,135.0
2021-04-05T05:40:03,42.805,6.029,0.011,-0.013,0.024,105.0,107.0,101.0,13.3,1505.2,324.3,-0.8,1.8,2470.472,13.28,0.017,139.8
2021-04-05T05:43:03,42.805,6.029,0.001,-0.015,0.021,105.0,106.0,104.0,13.3,1505.2,325.0,-0.8,1.8,2470.449,13.28,0.015,176.2
2021-04-05T05:46:03,42.805,6.029,0.006,-0.016,-0.002,105.0,108.0,103.0,13.4,1505.2,327.3,-0.7,1.8,2470.491,13.28,0.017,159.4
2021-04-05T05:49:03,42.805,6.029,0.01,-0.014,-0.004,107.0,107.0,102.0,13.4,1505.2,326.4,-0.7,1.8,2470.464,13.28,0.017,144.5
2021-04-05T05:52:03,42.805,6.029,0.006,-0.013,0.006,108.0,107.0,102.0,13.4,1505.2,323.8,-0.7,1.8,2470.451,13.28,0.014,155.2
2021-04-05T05:55:03,42.805,6.029,0.016,-0.022,0.042,106.0,105.0,102.0,13.4,1505.2,326.7,-0.8,1.9,2470.476,13.28,0.027,144.0
2021-04-05T05:58:03,42.805,6.029,0.011,-0.027,-0.007,106.0,105.0,104.0,13.4,1505.2,326.0,-0.7,1.8,2470.422,13.28,0.029,157.8
2021-04-05T06:01:03,42.805,6.029,0.012,-0.012,-0.019,106.0,109.0,103.0,13.3,1505.2,327.1,-0.7,1.8,2470.454,13.28,0.016,135.0
2021-04-05T06:04:03,42.805,6.029,0.009,-0.026,0.0,107.0,104.0,104.0,13.4,1505.2,327.2,-0.7,1.8,2470.424,13.28,0.027,160.9
2021-04-05T06:07:03,42.805,6.029,-0.007,-0.003,0.014,106.0,106.0,103.0,13.4,1505.2,324.8,-0.7,1.8,2470.443,13.28,0.007,246.8
2021-04-05T06:10:03,42.805,6.029,0.009,-0.026,-0.011,106.0,106.0,103.0,13.4,1505.2,324.5,-0.7,1.9,2470.401,13.28,0.027,160.9
2021-04-05T06:13:03,42.805,6.029,0.008,0.0,0.003,107.0,107.0,103.0,13.3,1505.2,323.1,-0.7,1.8,2470.463,13.28,0.008,90.0
2021-04-05T06:16:03,42.805,6.029,-0.002,-0.018,-0.005,108.0,106.0,103.0,13.3,1505.2,324.2,-0.8,1.8,2470.429,13.28,0.018,186.3
2021-04-05T06:19:03,42.805,6.029,-0.005,-0.018,-0.027,106.0,107.0,103.0,13.4,1505.2,327.8,-0.8,1.8,2470.431,13.28,0.018,195.5
2021-04-05T06:22:03,42.805,6.029,-0.018,-0.019,-0.038,106.0,106.0,103.0,13.3,1505.2,326.0,-0.7,1.8,2470.435,13.28,0.026,223.5
2021-04-05T06:25:03,42.805,6.029,-0.025,-0.009,0.002,106.0,107.0,103.0,13.4,1505.2,324.1,-0.7,1.8,2470.435,13.28,0.026,250.2
2021-04-05T06:28:03,42.805,6.029,-0.005,0.0,0.022,104.0,107.0,102.0,13.4,1505.2,328.1,-0.8,1.8,2470.43,13.28,0.005,270.0
2021-04-05T06:31:03,42.805,6.029,0.012,-0.012,0.022,107.0,104.0,103.0,13.4,1505.2,328.0,-0.8,1.8,2470.401,13.28,0.016,135.0
2021-04-05T06:34:03,42.805,6.029,0.003,-0.012,-0.001,104.0,105.0,103.0,13.4,1505.2,326.2,-0.8,1.8,2470.414,13.28,0.012,166.0
2021-04-05T06:37:03,42.805,6.029,0.017,-0.01,0.0,105.0,107.0,102.0,13.4,1505.2,325.5,-0.7,1.8,2470.433,13.28,0.019,120.5
2021-04-05T06:40:03,42.805,6.029,0.011,-0.013,-0.023,106.0,105.0,104.0,13.3,1505.2,327.6,-0.8,1.8,2470.387,13.28,0.017,139.8
2021-04-05T06:43:03,42.805,6.029,0.025,-0.012,0.008,105.0,106.0,103.0,13.3,1505.2,325.1,-0.7,1.8,2470.447,13.28,0.027,115.6
2021-04-05T06:46:03,42.805,6.029,-0.001,-0.018,0.0,106.0,107.0,103.0,13.3,1505.2,326.9,-0.8,1.8,2470.382,13.28,0.018,183.2
2021-04-05T06:49:03,42.805,6.029,0.0,-0.035,0.022,106.0,105.0,103.0,13.4,1505.2,328.4,-0.8,1.8,2470.399,13.28,0.035,180.0
2021-04-05T06:52:03,42.805,6.029,0.006,-0.039,-0.006,107.0,107.0,102.0,13.3,1505.2,327.9,-0.8,1.8,2470.395,13.28,0.039,171.3
2021-04-05T06:55:03,42.805,6.029,-0.004,-0.023,-0.009,107.0,104.0,103.0,13.3,1505.2,325.3,-0.8,1.8,2470.415,13.28,0.023,189.9
2021-04-05T06:58:03,42.805,6.029,0.014,-0.011,0.007,104.0,108.0,104.0,13.4,1505.2,325.5,-0.8,1.8,2470.391,13.28,0.017,128.2
2021-04-05T07:04:03,42.805,6.029,-0.012,-0.008,0.001,107.0,106.0,103.0,13.4,1505.2,327.9,-0.8,1.8,2470.453,13.28,0.014,236.3
2021-04-05T07:07:03,42.805,6.029,0.004,-0.017,-0.002,106.0,106.0,104.0,13.4,1505.2,328.5,-0.7,1.8,2470.414,13.28,0.017,166.8
2021-04-05T07:10:03,42.805,6.029,0.002,-0.017,0.027,107.0,108.0,104.0,13.3,1505.2,328.7,-0.8,1.8,2470.422,13.28,0.017,173.3
2021-04-05T07:13:03,42.805,6.029,0.001,-0.013,0.024,107.0,104.0,102.0,13.4,1505.2,328.7,-0.7,1.8,2470.378,13.28,0.013,175.6
2021-04-05T07:16:03,42.805,6.029,-0.01,-0.01,0.012,108.0,105.0,104.0,13.4,1505.2,328.5,-0.8,1.8,2470.388,13.28,0.014,225.0
2021-04-05T07:19:03,42.805,6.029,-0.015,-0.022,0.0,105.0,109.0,103.0,13.4,1505.2,328.6,-0.7,1.8,2470.417,13.28,0.026,214.3
2021-04-05T07:22:03,42.805,6.029,-0.003,0.001,0.006,107.0,105.0,103.0,13.4,1505.2,328.0,-0.7,1.8,2470.383,13.28,0.003,288.4
2021-04-05T07:25:03,42.805,6.029,0.002,-0.017,-0.014,105.0,106.0,102.0,13.3,1505.2,328.3,-0.8,1.9,2470.386,13.28,0.017,173.3
2021-04-05T07:28:03,42.805,6.029,0.001,-0.002,0.012,108.0,105.0,104.0,13.4,1505.2,328.4,-0.8,1.9,2470.333,13.28,0.002,153.4
2021-04-05T07:31:03,42.805,6.029,-0.006,-0.011,-0.006,106.0,106.0,103.0,13.4,1505.2,323.9,-0.8,1.8,2470.398,13.28,0.012,208.6
2021-04-05T07:34:03,42.805,6.029,0.001,0.0,-0.009,106.0,107.0,102.0,13.4,1505.2,328.4,-0.8,1.9,2470.418,13.28,0.001,90.0
2021-04-05T07:37:03,42.805,6.029,-0.003,0.004,-0.018,107.0,108.0,103.0,13.4,1505.2,327.9,-0.7,1.9,2470.408,13.28,0.005,323.1
2021-04-05T07:40:03,42.805,6.029,0.011,-0.016,0.011,108.0,105.0,103.0,13.4,1505.2,326.4,-0.7,1.8,2470.371,13.28,0.019,145.5
2021-04-05T07:43:03,42.805,6.029,0.013,-0.006,0.006,106.0,104.0,103.0,13.4,1505.2,326.0,-0.8,1.8,2470.398,13.28,0.014,114.8
2021-04-05T07:46:03,42.805,6.029,0.01,0.003,-0.007,108.0,105.0,104.0,13.4,1505.2,324.0,-0.8,1.9,2470.354,13.28,0.01,73.3
2021-04-05T07:49:03,42.805,6.029,0.005,0.002,-0.001,107.0,106.0,103.0,13.4,1505.2,323.8,-0.8,1.8,2470.391,13.28,0.005,68.2
2021-04-05T07:52:03,42.805,6.029,0.007,-0.003,0.035,105.0,107.0,103.0,13.4,1505.2,323.4,-0.8,1.8,2470.399,13.28,0.007,113.2
2021-04-05T07:55:03,42.805,6.029,-0.023,0.006,-0.024,106.0,106.0,103.0,13.3,1505.2,324.4,-0.8,1.8,2470.362,13.28,0.023,284.6
2021-04-05T07:58:03,42.805,6.029,0.0,-0.015,-0.017,106.0,105.0,103.0,13.4,1505.2,324.0,-0.7,1.8,2470.381,13.28,0.015,180.0
2021-04-05T08:04:03,42.805,6.029,0.012,-0.018,-0.012,106.0,106.0,103.0,13.4,1505.2,326.7,-0.8,1.8,2470.393,13.28,0.021,146.3
2021-04-05T08:07:03,42.805,6.029,0.006,-0.012,-0.01,106.0,105.0,104.0,13.4,1505.2,327.0,-0.8,1.8,2470.373,13.28,0.013,153.4
2021-04-05T08:10:03,42.805,6.029,0.006,0.001,-0.015,104.0,107.0,102.0,13.3,1505.2,326.8,-0.7,1.8,2470.389,13.28,0.006,80.5
2021-04-05T08:13:03,42.805,6.029,0.02,-0.004,0.021,105.0,107.0,103.0,13.4,1505.2,326.6,-0.7,1.8,2470.38,13.28,0.02,101.3
2021-04-05T08:16:03,42.805,6.029,0.008,-0.017,0.033,106.0,106.0,104.0,13.4,1505.2,328.0,-0.7,1.8,2470.356,13.28,0.018,154.8
2021-04-05T08:19:03,42.805,6.029,0.016,-0.021,-0.002,106.0,107.0,103.0,13.3,1505.2,326.9,-0.8,1.8,2470.408,13.28,0.026,142.7
2021-04-05T08:22:03,42.805,6.029,-0.003,-0.027,-0.027,107.0,107.0,104.0,13.4,1505.2,326.6,-0.7,1.8,2470.411,13.28,0.027,186.3
2021-04-05T08:25:03,42.805,6.029,-0.008,-0.013,-0.011,107.0,106.0,104.0,13.4,1505.2,328.4,-0.8,1.8,2470.379,13.28,0.015,211.6
2021-04-05T08:28:03,42.805,6.029,-0.006,-0.019,-0.019,106.0,106.0,104.0,13.3,1505.2,327.3,-0.8,1.8,2470.368,13.28,0.019,197.5
2021-04-05T08:31:03,42.805,6.029,-0.009,0.002,-0.011,108.0,106.0,104.0,13.4,1505.2,324.9,-0.8,1.8,2470.33,13.28,0.009,282.5
2021-04-05T08:34:03,42.805,6.029,-0.001,-0.022,-0.019,107.0,107.0,103.0,13.4,1505.2,323.6,-0.8,1.9,2470.339,13.28,0.022,182.6
2021-04-05T08:37:03,42.805,6.029,0.0,-0.018,0.01,106.0,106.0,103.0,13.3,1505.2,327.3,-0.7,1.8,2470.357,13.28,0.018,180.0
2021-04-05T08:40:03,42.805,6.029,-0.008,-0.012,0.0,106.0,105.0,103.0,13.4,1505.2,328.7,-0.7,1.8,2470.377,13.28,0.014,213.7
2021-04-05T08:43:03,42.805,6.029,0.043,-0.013,-0.034,105.0,105.0,104.0,13.4,1505.2,327.8,-0.7,1.9,2470.344,13.28,0.044,106.8
2021-04-05T08:46:03,42.805,6.029,-0.022,-0.015,-0.001,105.0,104.0,104.0,13.4,1505.2,326.9,-0.7,1.8,2470.329,13.28,0.026,235.7
2021-04-05T08:49:03,42.805,6.029,-0.005,-0.011,0.022,106.0,105.0,103.0,13.4,1505.2,324.9,-0.7,1.8,2470.338,13.28,0.012,204.4
2021-04-05T08:52:03,42.805,6.029,0.011,-0.017,0.0,104.0,105.0,103.0,13.4,1505.2,327.2,-0.8,1.8,2470.343,13.29,0.02,147.1
2021-04-05T08:55:03,42.805,6.029,-0.006,-0.007,0.025,106.0,105.0,103.0,13.4,1505.2,325.7,-0.7,1.8,2470.329,13.28,0.009,220.6
2021-04-05T08:58:03,42.805,6.029,0.005,-0.021,0.0,106.0,104.0,102.0,13.4,1505.2,326.9,-0.7,1.8,2470.365,13.29,0.021,166.6
2021-04-05T09:04:03,42.805,6.029,-0.002,-0.018,0.034,105.0,107.0,103.0,13.4,1505.2,327.0,-0.8,1.8,2470.392,13.28,0.018,186.3
2021-04-05T09:07:03,42.805,6.029,0.018,-0.028,0.002,107.0,106.0,102.0,13.4,1505.2,326.9,-0.7,1.8,2470.346,13.28,0.033,147.3
2021-04-05T09:10:03,42.805,6.029,-0.014,-0.017,0.021,107.0,105.0,104.0,13.4,1505.2,327.7,-0.7,1.8,2470.345,13.28,0.022,219.5
2021-04-05T09:13:03,42.805,6.029,-0.012,-0.013,0.002,106.0,104.0,103.0,13.4,1505.2,327.3,-0.8,1.8,2470.399,13.28,0.017,222.7
2021-04-05T09:16:03,42.805,6.029,0.007,-0.023,0.009,105.0,106.0,104.0,13.4,1505.2,326.2,-0.7,1.8,2470.351,13.28,0.024,163.1
2021-04-05T09:19:03,42.805,6.029,0.013,0.0,0.008,107.0,106.0,103.0,13.4,1505.2,325.5,-0.8,1.8,2470.357,13.28,0.013,90.0
2021-04-05T09:22:03,42.805,6.029,0.014,-0.017,-0.016,106.0,105.0,104.0,13.4,1505.2,323.7,-0.8,1.8,2470.352,13.28,0.022,140.5
2021-04-05T09:25:03,42.805,6.029,-0.01,-0.001,0.013,106.0,106.0,103.0,13.4,1505.2,323.5,-0.7,1.8,2470.373,13.28,0.01,264.3
2021-04-05T09:28:03,42.805,6.029,0.0,-0.017,0.026,108.0,107.0,104.0,13.4,1505.2,323.9,-0.7,1.8,2470.361,13.28,0.017,180.0
2021-04-05T09:31:03,42.805,6.029,0.009,-0.012,-0.004,106.0,105.0,103.0,13.4,1505.2,324.6,-0.8,1.8,2470.36,13.28,0.015,143.1
2021-04-05T09:34:03,42.805,6.029,-0.01,-0.007,0.012,103.0,105.0,102.0,13.3,1505.2,324.3,-0.7,1.8,2470.399,13.28,0.012,235.0
2021-04-05T09:37:03,42.805,6.029,0.01,-0.004,0.032,106.0,104.0,104.0,13.4,1505.2,328.4,-0.8,1.8,2470.358,13.28,0.01,111.8
2021-04-05T09:40:03,42.805,6.029,-0.008,-0.011,0.01,105.0,105.0,103.0,13.4,1505.2,324.7,-0.8,1.8,2470.311,13.28,0.013,216.0
2021-04-05T09:43:03,42.805,6.029,-0.013,-0.026,-0.017,105.0,105.0,102.0,13.3,1505.2,326.3,-0.7,1.8,2470.363,13.28,0.029,206.6
2021-04-05T09:46:03,42.805,6.029,0.008,-0.006,-0.008,104.0,104.0,102.0,13.3,1505.2,326.0,-0.8,1.8,2470.333,13.28,0.01,126.9
2021-04-05T09:49:03,42.805,6.029,0.003,-0.001,0.026,102.0,105.0,103.0,13.3,1505.2,327.3,-0.8,1.8,2470.338,13.28,0.003,108.4
2021-04-05T09:52:03,42.805,6.029,-0.006,-0.011,0.019,104.0,104.0,102.0,13.4,1505.2,326.9,-0.7,1.8,2470.383,13.28,0.012,208.6
2021-04-05T09:55:03,42.805,6.029,-0.012,0.0,-0.011,104.0,104.0,102.0,13.3,1505.2,325.7,-0.8,1.8,2470.329,13.28,0.012,270.0